Tracking 18980 objects as of 19-Feb-2018
HD Live streaming from Space Station
objects crossing your sky now

OPS 9317 (IDSCS 7)

Track OPS 9317 (IDSCS 7) now!
OPS 9317 (IDSCS 7) is classified as:


NORAD ID: 2221
Int'l Code: 1966-053H
Perigee: 33,739.6 km
Apogee: 34,339.4 km
Inclination: 2.8 °
Period: 1,347.4 minutes
Semi major axis: 40410 km
RCS: 0.2512 m2 (medium)
Launch date: June 16, 1966
Source: United States (US)
Launch site: AIR FORCE EASTERN TEST RANGE (AFETR)
aabbcc
Your satellite tracking list
Your tracking list is empty




NASA's NSSDC Master Catalog

Two Line Element Set (TLE):
1 02221U 66053H   18048.70438189 -.00000077  00000-0  00000+0 0  9992
2 02221   2.7808  59.7290 0074207  99.0325 262.2356  1.06871461201478
Source of the keplerian elements: AFSPC